Weather History for HELX - April, 2014

Change the Weather History Date:

Sunday, April 13, 2014

  Actual Average Record
Temperature  
Mean Temperature 77 °F -  
Max Temperature 90 °F 94 °F 105 °F (1998)
Min Temperature 64 °F 65 °F 40 °F (2015)
Cooling Degree Days 12    
Growing Degree Days 27 (Base 50)    
Moisture  
Dew Point 41 °F    
Average Humidity 24    
Maximum Humidity 35    
Minimum Humidity 11    
Precipitation  
Precipitation 0.00 in 0.00 in - ()
Sea Level Pressure  
Sea Level Pressure 29.92 in    
Wind  
Wind Speed 3 mph ()    
Max Wind Speed 15 mph    
Max Gust Speed -    
Visibility 6.0 miles    
Events      
Averages and records for this station are not official NWS values.
T = Trace of Precipitation, MM = Missing Value Source: Averaged Metar Reports

Daily Weather History Graph

Daily Weather History Graph

Search for Another Location

Airport or City:

Trip Planner

Search our weather history database for the weather conditions in past years. The results will help you decide how hot, cold, wet, or windy it might be!

Date:

Astronomy

Apr. 13, 2014 Rise Set
Actual Time 5:28 AM EET 6:11 PM EET
Civil Twilight 5:05 AM EET 6:34 PM EET
Nautical Twilight 4:37 AM EET 7:02 PM EET
Astronomical Twilight 4:09 AM EET 7:30 PM EET
Moon 4:37 PM EET (4/13) 4:04 AM EET (4/13)
Length of Visible Light 13h 29m
Length of Day
12h 42m
Waxing Gibbous, 96% of the Moon is Illuminated
Apr 13
Waxing Gibbous
Apr 15
Full
Apr 22
Last Quarter
Apr 29
New
May 7
First Quarter

Hourly Weather History & Observations

Time (EET) Temp. Dew Point Humidity Pressure Visibility Wind Dir Wind Speed Gust Speed Precip Events Conditions
12:00 AM 73.4 °F 42.8 °F 33% 29.95 in - ESE 3.5 mph - N/A   Clear
1:00 AM 71.6 °F 41.0 °F 33% 29.92 in - SE 4.6 mph - N/A   Clear
2:00 AM 69 °F 38 °F 21% 29.93 in 6 mi Calm Calm - -  
2:00 AM 69.8 °F 37.4 °F 31% 29.92 in - Calm Calm - N/A   Clear
3:00 AM 68.0 °F 39.2 °F 35% 29.92 in - SSE 15.0 mph - N/A   Clear
4:00 AM 66.2 °F 37.4 °F 35% 29.92 in - South 2.3 mph - N/A   Clear
5:00 AM 65 °F 36 °F 23% 29.93 in 6 mi Calm Calm - -  
5:00 AM 66.2 °F 35.6 °F 32% 29.92 in - Calm Calm - N/A   Clear
6:00 AM 66.2 °F 35.6 °F 32% 29.95 in - ENE 3.5 mph - N/A   Clear
7:00 AM 69.8 °F 41.0 °F 35% 29.95 in - Calm Calm - N/A   Clear
8:00 AM 74 °F 39 °F 18% 29.97 in 6 mi Calm Calm - -   Partly Cloudy
8:00 AM 73.4 °F 39.2 °F 29% 29.98 in - Calm Calm - N/A   Clear
9:00 AM 78.8 °F 44.6 °F 30% 30.01 in - North 2.3 mph - N/A   Clear
10:00 AM 82.4 °F 44.6 °F 26% 30.01 in - NW 2.3 mph - N/A   Clear
11:00 AM 86 °F 44 °F 14% 29.98 in 6 mi NNW 3.5 mph - -  
11:00 AM 86.0 °F 42.8 °F 22% 29.98 in - NNW 3.5 mph - N/A   Clear
12:00 PM 86.0 °F 41.0 °F 20% 29.95 in - North 5.8 mph - N/A   Clear
1:00 PM 89.6 °F 41.0 °F 18% 29.92 in - WNW 3.5 mph - N/A   Clear
2:00 PM 91 °F 43 °F 11% 29.88 in 6 mi West 4.6 mph - -  
2:00 PM 91.4 °F 42.8 °F 18% 29.89 in - West 4.6 mph - N/A   Clear
3:00 PM 91.4 °F 39.2 °F 16% 29.86 in - West 3.5 mph - N/A   Clear
4:00 PM 91.4 °F 41.0 °F 17% 29.86 in - West 9.2 mph - N/A   Clear
5:00 PM 89 °F 42 °F 11% 29.86 in 6 mi WNW 5.8 mph - -  
5:00 PM 89.6 °F 41.0 °F 18% 29.86 in - WNW 5.8 mph - N/A   Clear
6:00 PM 86.0 °F 42.8 °F 22% 29.89 in - North 3.5 mph - N/A   Clear
7:00 PM 82.4 °F 41.0 °F 23% 29.89 in - NNW 3.5 mph - N/A   Clear
8:00 PM 78 °F 42 °F 17% 29.90 in 6 mi NNW 2.3 mph - -  
8:00 PM 78.8 °F 41.0 °F 26% 29.89 in - NNW 2.3 mph - N/A   Clear
9:00 PM 75.2 °F 41.0 °F 29% 29.92 in - NW 2.3 mph - N/A   Clear
10:00 PM 73.4 °F 41.0 °F 31% 29.92 in - Calm Calm - N/A   Clear
11:00 PM 72 °F 40 °F 20% 29.93 in 6 mi Calm Calm - -  
11:00 PM 71.6 °F 39.2 °F 31% 29.92 in - Calm Calm - N/A   Clear